GW5269 Weather Reports


time (UTC)temp
C
wind
direction
speed
KPH
gust
KPH
rain 1hr
cm
rain 24hr
cm
rain mn
cm
humidity
%
barometer
mb
20260507231334 10 180 1.6 3.2 0.00 0.08 0.08 59 1011.9
20260507230830 10 166 4.8 9.7 0.00 0.08 0.08 55 1012.0
20260507230327 10 186 1.6 4.8 0.00 0.08 0.08 57 1012.0
20260507225827 10 91 1.6 6.4 0.00 0.08 0.08 56 1012.0
20260507225323 10 288 6.4 12.9 0.00 0.08 0.08 53 1012.0
20260507224820 10 90 1.6 3.2 0.00 0.08 0.08 60 1012.3
20260507224316 10 123 4.8 6.4 0.00 0.08 0.08 60 1012.1
20260507223812 10 108 3.2 4.8 0.00 0.08 0.08 54 1011.9
20260507223308 10 293 6.4 22.5 0.00 0.08 0.08 57 1011.9
20260507222806 10 65 1.6 4.8 0.00 0.08 0.08 56 1011.9
20260507222305 10 167 4.8 4.8 0.00 0.08 0.08 58 1011.9
20260507221759 10 126 0.0 6.4 0.00 0.08 0.08 55 1012.0
20260507221255 10 26 0.0 3.2 0.00 0.08 0.08 56 1011.9
20260507220751 10 132 1.6 4.8 0.00 0.08 0.08 56 1011.6
20260507220250 10 241 1.6 6.4 0.00 0.08 0.08 56 1011.6
20260507215746 11 153 1.6 9.7 0.00 0.08 0.08 55 1011.7
20260507215244 11 118 1.6 6.4 0.00 0.08 0.08 55 1011.7
20260507214740 11 305 3.2 9.7 0.00 0.08 0.08 52 1011.5
20260507214238 11 174 3.2 4.8 0.00 0.08 0.08 54 1011.4
20260507213738 11 186 3.2 4.8 0.00 0.08 0.08 50 1011.5
20260507213231 13 193 1.6 3.2 0.00 0.08 0.08 46 1011.5
20260507212726 13 252 1.6 3.2 0.00 0.08 0.08 51 1011.5
20260507212223 12 95 3.2 3.2 0.00 0.08 0.08 53 1011.3
20260507211720 12 175 3.2 6.4 0.00 0.08 0.08 50 1011.5
20260507211216 13 113 3.2 9.7 0.00 0.08 0.08 51 1011.1
20260507210713 12 189 3.2 9.7 0.00 0.08 0.08 54 1011.3
20260507210210 13 260 1.6 3.2 0.00 0.08 0.08 56 1011.3
20260507205707 13 204 3.2 11.3 0.00 0.08 0.08 52 1011.2
20260507205203 12 155 0.0 4.8 0.00 0.08 0.08 55 1011.2
20260507204659 13 61 1.6 11.3 0.00 0.08 0.08 51 1011.3
20260507204157 13 155 4.8 4.8 0.00 0.08 0.08 56 1011.2
20260507203655 12 178 3.2 4.8 0.00 0.08 0.08 58 1011.5
20260507203152 13 174 1.6 11.3 0.00 0.08 0.08 62 1011.3
20260507202647 12 176 0.0 4.8 0.00 0.08 0.08 52 1011.5
20260507202144 12 84 1.6 4.8 0.00 0.08 0.08 56 1011.3
20260507201645 12 114 1.6 6.4 0.00 0.08 0.08 56 1011.6
20260507201142 12 100 1.6 11.3 0.00 0.08 0.08 56 1011.6
20260507200638 11 259 0.0 3.2 0.00 0.08 0.08 57 1011.6
20260507200134 12 161 4.8 11.3 0.00 0.08 0.08 55 1011.6
20260507195631 12 75 4.8 9.7 0.00 0.08 0.08 54 1011.9
20260507195128 14 131 6.4 11.3 0.00 0.08 0.08 52 1011.6
20260507194626 13 250 1.6 11.3 0.00 0.08 0.08 59 1011.6
20260507194120 12 102 1.6 4.8 0.00 0.08 0.08 49 1011.6
20260507193618 13 82 1.6 12.9 0.00 0.08 0.08 54 1011.8
20260507193115 13 289 6.4 11.3 0.00 0.08 0.08 53 1011.6
20260507192611 14 283 3.2 4.8 0.00 0.08 0.08 52 1011.9
20260507192108 13 158 6.4 11.3 0.00 0.08 0.08 51 1011.8
20260507191603 13 157 3.2 9.7 0.00 0.08 0.08 56 1011.9
20260507191100 12 193 0.0 11.3 0.00 0.08 0.08 54 1011.6
20260507190558 12 86 3.2 4.8 0.00 0.08 0.08 57 1011.6
20260507190056 13 64 3.2 6.4 0.00 0.08 0.08 50 1011.8
20260507185554 12 195 0.0 9.7 0.00 0.08 0.08 57 1011.8
20260507185051 12 48 1.6 9.7 0.00 0.08 0.08 57 1011.9
20260507184549 12 261 1.6 3.2 0.00 0.08 0.08 52 1012.0
20260507184047 12 262 1.6 11.3 0.00 0.08 0.08 56 1011.8
20260507183542 12 177 3.2 6.4 0.00 0.08 0.08 57 1011.9
20260507183039 13 127 1.6 3.2 0.00 0.08 0.08 50 1012.0
20260507182536 13 157 3.2 9.7 0.00 0.08 0.08 63 1011.9
20260507182032 13 138 3.2 6.4 0.00 0.08 0.08 51 1011.9
20260507181529 13 154 3.2 6.4 0.00 0.08 0.08 60 1012.1
20260507181025 13 202 4.8 4.8 0.00 0.08 0.08 57 1011.9
20260507180521 12 76 3.2 14.5 0.00 0.08 0.08 54 1011.9
20260507180019 12 95 1.6 4.8 0.00 0.08 0.08 56 1012.1
20260507175515 13 339 4.8 6.4 0.00 0.08 0.08 54 1012.1
20260507175012 13 195 0.0 11.3 0.00 0.08 0.08 59 1012.3
20260507174509 13 141 3.2 6.4 0.00 0.08 0.08 64 1012.1
20260507174007 12 54 1.6 3.2 0.00 0.08 0.08 55 1012.1
20260507173504 13 177 4.8 12.9 0.00 0.08 0.08 64 1012.4
20260507173001 13 177 1.6 3.2 0.00 0.08 0.08 58 1012.4
20260507172457 13 187 1.6 4.8 0.00 0.08 0.08 58 1012.4
20260507171954 12 109 3.2 3.2 0.00 0.08 0.08 66 1012.5
20260507171449 12 218 3.2 6.4 0.00 0.08 0.08 60 1012.5
20260507170947 12 51 3.2 4.8 0.00 0.08 0.08 51 1012.6
20260507170443 11 64 4.8 6.4 0.00 0.08 0.08 62 1012.5
20260507165940 11 250 4.8 6.4 0.00 0.08 0.08 68 1012.7
20260507165436 11 304 6.4 11.3 0.00 0.08 0.08 61 1012.8
20260507164931 11 193 11.3 16.1 0.00 0.08 0.08 64 1012.8
20260507164429 11 89 1.6 4.8 0.00 0.08 0.08 55 1012.8
20260507163926 12 221 4.8 17.7 0.00 0.08 0.08 64 1013.0
20260507163423 11 50 0.0 1.6 0.00 0.08 0.08 65 1013.0
20260507162920 11 94 1.6 4.8 0.00 0.08 0.08 72 1012.9
20260507162415 10 251 1.6 6.4 0.00 0.08 0.08 68 1013.1
20260507161913 11 115 3.2 4.8 0.00 0.08 0.08 58 1013.2
20260507161409 11 318 1.6 3.2 0.00 0.08 0.08 60 1013.3
20260507160906 11 151 0.0 3.2 0.00 0.08 0.08 63 1013.2
20260507160401 11 62 1.6 3.2 0.00 0.08 0.08 64 1013.2
20260507155858 11 64 8.0 12.9 0.00 0.08 0.08 62 1013.1
20260507155354 12 148 3.2 4.8 0.00 0.08 0.08 64 1013.1
20260507154850 11 227 1.6 3.2 0.00 0.08 0.08 71 1013.2
20260507154348 11 36 3.2 4.8 0.00 0.08 0.08 61 1013.1
20260507153845 11 251 1.6 4.8 0.00 0.08 0.08 67 1013.2
20260507153341 11 68 3.2 4.8 0.00 0.08 0.08 62 1013.2
20260507152838 11 66 0.0 4.8 0.00 0.08 0.08 64 1013.4
20260507152334 10 301 0.0 3.2 0.00 0.08 0.08 72 1013.3
20260507151830 10 81 1.6 9.7 0.00 0.08 0.08 69 1013.7
20260507151327 10 217 3.2 4.8 0.00 0.08 0.08 75 1013.3
20260507150824 10 89 1.6 3.2 0.00 0.08 0.08 70 1013.3
20260507150320 10 251 1.6 4.8 0.00 0.08 0.08 74 1013.6
20260507145816 10 168 3.2 3.2 0.00 0.08 0.08 77 1013.6
20260507145313 9 122 9.7 11.3 0.00 0.08 0.08 70 1013.6
20260507144810 9 129 3.2 4.8 0.00 0.08 0.08 71 1014.0
20260507144307 10 52 1.6 9.7 0.00 0.08 0.08 70 1014.0
20260507143804 10 270 1.6 4.8 0.00 0.08 0.08 74 1014.0
20260507143301 10 286 1.6 3.2 0.00 0.08 0.08 75 1014.0
20260507142757 10 182 4.8 6.4 0.00 0.08 0.08 67 1014.1
20260507142254 9 123 0.0 11.3 0.00 0.08 0.08 75 1014.0
20260507141750 9 247 3.2 9.7 0.00 0.08 0.08 77 1014.2
20260507141247 8 206 1.6 4.8 0.00 0.08 0.08 82 1014.2
20260507140743 9 60 1.6 1.6 0.00 0.08 0.08 79 1014.1
20260507140241 8 222 0.0 1.6 0.00 0.08 0.08 77 1014.2
20260507135738 8 256 0.0 1.6 0.00 0.08 0.08 79 1014.1
20260507135235 8 180 3.2 4.8 0.00 0.08 0.08 82 1014.3
20260507134731 7 178 0.0 4.8 0.00 0.08 0.08 85 1014.5
20260507134228 7 145 0.0 3.2 0.00 0.08 0.08 87 1014.5
20260507133724 7 211 1.6 4.8 0.00 0.08 0.08 88 1014.5
20260507133221 6 122 0.0 3.2 0.00 0.08 0.08 89 1014.4
20260507132718 7 89 0.0 3.2 0.00 0.08 0.08 94 1014.5
20260507132215 6 287 1.6 1.6 0.00 0.08 0.08 96 1014.5
20260507131711 6 276 1.6 3.2 0.00 0.08 0.08 94 1014.5
20260507131209 6 170 0.0 0.0 0.00 0.08 0.08 98 1014.6
20260507130705 5 297 0.0 0.0 0.00 0.08 0.08 99 1014.6
20260507130203 5 182 0.0 1.6 0.00 0.08 0.08 99 1014.6
20260507125702 5 107 0.0 0.0 0.00 0.08 0.08 99 1014.6
20260507125159 4 103 0.0 1.6 0.00 0.08 0.08 99 1014.7
20260507124655 5 233 0.0 0.0 0.00 0.08 0.08 99 1014.7
20260507124153 4 240 0.0 0.0 0.00 0.08 0.08 99 1014.7
20260507123651 4 243 0.0 0.0 0.00 0.08 0.08 99 1015.0
20260507123148 4 243 0.0 0.0 0.00 0.08 0.08 99 1014.9
20260507122643 4 242 0.0 0.0 0.00 0.08 0.08 99 1014.9
20260507122139 4 245 0.0 0.0 0.00 0.08 0.08 99 1014.6
20260507121635 3 245 0.0 0.0 0.00 0.08 0.08 99 1014.6
20260507121131 3 232 0.0 0.0 0.00 0.08 0.08 99 1014.7
20260507120627 4 234 0.0 0.0 0.00 0.08 0.08 99 1014.5
20260507120124 4 230 0.0 0.0 0.00 0.08 0.08 99 1014.4
20260507115621 4 225 0.0 0.0 0.00 0.08 0.08 99 1014.6
20260507115116 5 166 0.0 0.0 0.00 0.08 0.08 99 1014.3
20260507114612 5 222 0.0 0.0 0.00 0.08 0.08 99 1014.4
20260507114110 5 224 0.0 0.0 0.00 0.08 0.08 99 1014.4
20260507113607 5 220 0.0 0.0 0.00 0.08 0.08 99 1014.3
20260507113104 5 219 0.0 0.0 0.00 0.08 0.08 99 1014.3
20260507112602 5 213 0.0 0.0 0.00 0.08 0.08 99 1014.1
20260507112058 4 224 0.0 0.0 0.00 0.08 0.08 99 1014.2
20260507111555 4 227 0.0 0.0 0.00 0.08 0.08 99 1014.1
20260507111052 4 230 0.0 0.0 0.00 0.08 0.08 99 1014.3
20260507110548 4 240 0.0 0.0 0.00 0.08 0.08 99 1014.1
20260507110045 4 240 0.0 0.0 0.00 0.08 0.08 99 1014.2
20260507105542 4 238 0.0 0.0 0.00 0.08 0.08 99 1013.9
20260507105038 4 238 0.0 0.0 0.00 0.08 0.08 99 1014.0
20260507104536 4 238 0.0 0.0 0.00 0.08 0.08 99 1013.8
20260507104032 4 237 0.0 0.0 0.00 0.08 0.08 99 1013.7
20260507103528 4 236 0.0 0.0 0.00 0.08 0.08 99 1013.7
20260507103025 4 236 0.0 0.0 0.00 0.08 0.08 99 1013.9
20260507102521 4 235 0.0 0.0 0.00 0.08 0.08 99 1013.9
20260507102017 4 245 0.0 0.0 0.00 0.08 0.08 99 1013.9
20260507101513 4 245 0.0 0.0 0.00 0.08 0.08 99 1013.6
20260507101010 4 245 0.0 0.0 0.00 0.08 0.08 99 1013.9
20260507100507 4 245 0.0 0.0 0.00 0.08 0.08 99 1013.7
20260507100005 4 245 0.0 0.0 0.00 0.08 0.08 99 1013.7
20260507095503 4 245 0.0 0.0 0.00 0.08 0.08 99 1013.6
20260507094959 4 245 0.0 0.0 0.00 0.08 0.08 99 1013.4
20260507094455 4 245 0.0 0.0 0.00 0.08 0.08 99 1013.3
20260507093953 4 245 0.0 0.0 0.00 0.08 0.08 99 1013.4
20260507093450 4 245 0.0 0.0 0.00 0.08 0.08 99 1013.4
20260507092948 4 245 0.0 0.0 0.00 0.08 0.08 99 1013.4
20260507092444 4 245 0.0 0.0 0.00 0.08 0.08 99 1013.3
20260507091941 3 245 0.0 0.0 0.00 0.08 0.08 99 1013.4
20260507091438 3 245 0.0 0.0 0.00 0.08 0.08 99 1013.7
20260507090933 3 245 0.0 0.0 0.00 0.08 0.08 99 1013.2
20260507090430 3 245 0.0 0.0 0.00 0.08 0.08 99 1013.2
20260507085926 3 245 0.0 0.0 0.00 0.08 0.08 99 1013.3
20260507085424 3 245 0.0 0.0 0.00 0.08 0.08 99 1013.3
20260507084921 3 245 0.0 0.0 0.00 0.08 0.08 99 1013.4
20260507084418 3 245 0.0 0.0 0.00 0.08 0.08 99 1013.4
20260507083915 3 245 0.0 0.0 0.00 0.08 0.08 99 1013.2
20260507083411 4 245 0.0 0.0 0.00 0.08 0.08 99 1013.4
20260507082907 4 245 0.0 0.0 0.00 0.08 0.08 99 1013.6
20260507082403 4 245 0.0 0.0 0.00 0.08 0.08 99 1013.4
20260507081900 4 244 0.0 0.0 0.00 0.08 0.08 99 1013.7
20260507081356 4 246 0.0 0.0 0.00 0.08 0.08 99 1013.6
20260507080853 4 260 0.0 0.0 0.00 0.08 0.08 99 1013.4
20260507080349 4 260 0.0 1.6 0.00 0.08 0.08 99 1013.4
20260507075845 5 346 0.0 1.6 0.00 0.08 0.08 99 1013.7
20260507075341 5 254 1.6 1.6 0.00 0.08 0.08 99 1013.6
20260507074837 5 352 1.6 4.8 0.00 0.08 0.08 99 1013.7
20260507074335 6 67 4.8 11.3 0.00 0.08 0.08 99 1013.3
20260507073832 6 312 1.6 1.6 0.13 0.08 0.08 99 1013.4
20260507073329 6 45 0.0 0.0 0.18 0.05 0.05 99 1013.4
20260507072826 6 45 0.0 0.0 0.18 0.05 0.05 99 1013.0
20260507072323 6 44 0.0 0.0 0.13 0.03 0.03 99 1013.3
20260507071821 6 46 0.0 0.0 0.13 0.03 0.03 99 1013.3
20260507071317 6 47 0.0 0.0 0.00 0.00 0.00 99 1013.4
20260507070814 6 46 0.0 0.0 0.00 0.00 0.00 99 1013.3
20260507070311 6 47 0.0 0.0 0.00 0.00 0.00 99 1013.4
20260507065808 6 47 0.0 0.0 0.00 0.00 0.00 99 1013.1
20260507065306 6 47 0.0 0.0 0.00 0.00 0.00 99 1013.1
20260507064802 6 47 0.0 0.0 0.00 0.00 0.00 99 1013.2
20260507064300 6 47 0.0 0.0 0.00 0.00 0.00 99 1013.6
20260507063758 6 48 0.0 0.0 0.00 0.00 0.00 99 1013.2
20260507063254 6 48 0.0 0.0 0.00 0.00 0.00 99 1013.4
20260507062751 6 48 0.0 0.0 0.00 0.00 0.00 99 1013.3
20260507062248 6 48 0.0 0.0 0.00 0.00 0.00 99 1013.8
20260507061746 6 337 0.0 0.0 0.00 0.00 0.00 99 1013.3
20260507061244 6 338 0.0 0.0 0.00 0.00 0.00 99 1013.6
20260507060742 6 338 0.0 0.0 0.00 0.00 0.00 99 1013.4
20260507060238 6 338 0.0 0.0 0.00 0.00 0.00 99 1013.4
20260507055735 6 338 0.0 0.0 0.00 0.00 0.00 99 1013.7
20260507055230 6 338 0.0 0.0 0.00 0.00 0.00 99 1013.8
20260507054726 6 340 0.0 0.0 0.00 0.00 0.00 99 1013.9
20260507054224 6 340 0.0 0.0 0.00 0.00 0.00 99 1014.0
20260507053721 6 341 0.0 0.0 0.00 0.00 0.00 99 1013.8
20260507053219 6 339 0.0 0.0 0.00 0.00 0.00 99 1014.3
20260507052718 6 339 0.0 0.0 0.00 0.00 0.00 99 1014.2
20260507052213 6 339 0.0 0.0 0.00 0.00 0.00 99 1014.2
20260507051711 6 339 0.0 0.0 0.00 0.00 0.00 99 1014.1
20260507051208 6 340 0.0 0.0 0.00 0.00 0.00 99 1014.2
20260507050704 6 340 0.0 0.0 0.00 0.00 0.00 99 1014.2
20260507050201 6 340 0.0 0.0 0.00 0.00 0.00 99 1014.1
20260507045658 6 340 0.0 0.0 0.00 0.00 0.00 99 1014.3
20260507045156 6 340 0.0 0.0 0.00 0.00 0.00 99 1014.0
20260507044652 6 341 0.0 0.0 0.00 0.00 0.00 99 1014.3
20260507044148 6 341 0.0 0.0 0.00 0.00 0.00 99 1014.0
20260507043644 6 341 0.0 0.0 0.00 0.00 0.00 99 1014.1
20260507043142 6 341 0.0 0.0 0.00 0.00 0.00 99 1014.0
20260507042638 6 341 0.0 0.0 0.00 0.00 0.00 99 1014.0
20260507042133 6 344 0.0 0.0 0.00 0.00 0.00 99 1014.0
20260507041630 6 344 0.0 0.0 0.00 0.00 0.00 99 1014.2
20260507041126 6 344 0.0 0.0 0.00 0.00 0.00 99 1014.0
20260507040624 6 345 0.0 0.0 0.00 0.00 0.00 99 1014.0
20260507040120 6 349 0.0 0.0 0.00 0.00 0.00 99 1014.0
20260507035616 6 353 0.0 0.0 0.00 2.54 2.54 99 1013.9
20260507035112 6 354 0.0 0.0 0.00 2.54 2.54 99 1014.0
20260507034609 6 5 0.0 0.0 0.00 2.54 2.54 99 1014.0
20260507034107 6 62 0.0 0.0 0.18 2.54 2.54 99 1013.9
20260507033605 6 278 0.0 1.6 0.18 2.54 2.54 99 1014.2
20260507033102 6 126 3.2 4.8 0.00 2.51 2.51 99 1013.9
20260507032559 6 299 0.0 4.8 0.13 2.51 2.51 99 1014.4
20260507032055 6 316 0.0 1.6 0.13 2.51 2.51 99 1014.4
20260507031552 6 72 0.0 1.6 0.00 2.49 2.49 99 1014.3
20260507031049 6 196 0.0 0.0 0.00 2.49 2.49 99 1014.2
20260507030545 6 195 0.0 0.0 0.00 2.49 2.49 99 1014.2
20260507030043 6 131 1.6 4.8 0.00 2.49 2.49 99 1014.2
20260507025540 6 309 0.0 0.0 0.00 2.49 2.49 99 1014.2
20260507025038 6 4 0.0 0.0 0.18 2.49 2.49 99 1013.8
20260507024536 6 287 0.0 0.0 0.36 2.49 2.49 99 1013.9
20260507024032 6 288 0.0 1.6 0.18 2.46 2.46 99 1013.4
20260507023527 6 239 0.0 0.0 0.13 2.44 2.44 99 1014.0
20260507023026 6 239 0.0 1.6 0.13 2.44 2.44 99 1014.4
20260507022522 6 103 3.2 3.2 0.00 2.41 2.41 99 1014.3
20260507022017 6 16 0.0 1.6 0.00 2.41 2.41 99 1014.1
20260507021514 6 284 1.6 4.8 0.18 2.41 2.41 99 1014.0
20260507021010 7 71 0.0 1.6 0.18 2.41 2.41 99 1014.0
20260507020508 6 343 0.0 0.0 0.00 2.39 2.39 99 1013.9
20260507020004 7 10 1.6 3.2 0.00 2.39 2.39 99 1014.0
20260507015503 6 321 0.0 4.8 0.00 2.39 2.39 99 1013.8
20260507015000 7 322 0.0 1.6 0.13 2.39 2.39 99 1013.3
20260507014456 7 68 1.6 4.8 0.13 2.39 2.39 99 1013.6
20260507013952 7 343 1.6 1.6 0.00 2.36 2.36 99 1013.2
20260507013449 7 16 1.6 3.2 0.18 2.36 2.36 99 1013.3
20260507012946 7 347 0.0 1.6 0.00 2.34 2.34 99 1013.7
20260507012443 7 351 1.6 3.2 0.13 2.34 2.34 99 1013.3
20260507011940 7 339 1.6 1.6 0.13 2.34 2.34 99 1013.3
20260507011437 7 121 0.0 4.8 0.00 2.31 2.31 99 1013.2
20260507010937 7 75 0.0 1.6 0.00 2.31 2.31 99 1013.7
20260507010432 7 154 0.0 0.0 0.00 2.31 2.31 99 1013.0
20260507005929 7 116 0.0 1.6 0.00 2.31 2.31 99 1013.1
20260507005427 8 46 1.6 3.2 0.00 2.31 2.31 99 1013.0
20260507004923 7 307 0.0 1.6 0.18 2.31 2.31 99 1012.8
20260507004420 7 44 0.0 3.2 0.18 2.31 2.31 99 1013.1
20260507003917 7 98 1.6 3.2 0.00 2.29 2.29 99 1013.2
20260507003412 8 11 0.0 0.0 0.00 2.29 2.29 99 1013.0
20260507002908 8 74 0.0 0.0 0.00 2.29 2.29 99 1012.7
20260507002404 8 165 0.0 0.0 0.00 2.29 2.29 99 1012.8
20260507001902 8 163 0.0 0.0 0.00 2.29 2.29 99 1012.9
20260507001358 8 163 0.0 0.0 0.00 2.29 2.29 99 1013.3
20260507000855 8 222 0.0 0.0 0.00 2.29 2.29 99 1013.6
20260507000350 8 197 0.0 1.6 0.00 2.29 2.29 99 1013.9
20260506235847 8 118 0.0 1.6 0.00 2.29 2.29 99 1013.7
20260506235344 8 249 0.0 0.0 0.00 2.29 2.29 99 1013.3
20260506234840 8 246 0.0 1.6 0.00 2.29 2.29 99 1013.4
20260506234338 8 238 0.0 3.2 0.00 2.29 2.29 99 1013.6
20260506233835 8 178 0.0 0.0 0.00 2.29 2.29 99 1013.3
20260506233331 8 213 0.0 1.6 0.00 2.29 2.29 99 1013.6
20260506232828 8 291 0.0 1.6 0.00 2.29 2.29 99 1013.1
20260506232324 8 166 0.0 1.6 0.00 2.29 2.29 99 1013.2